FW8351 Weather Reports


time (UTC)temp
F
wind
direction
speed
knots
gust
knots
rain 1hr
in
rain 24hr
in
rain mn
in
humidity
%
barometer
mb
20260510043035 43 190 0.0 0.0 0.00 0.00 0.00 94 1009.9
20260510041519 43 190 0.0 0.0 0.00 0.00 0.00 93 1009.9
20260510040100 44 190 0.0 0.0 0.00 0.00 0.00 93 1009.9
20260510034536 45 190 0.0 0.0 0.00 0.00 0.00 94 1010.0
20260510033019 45 190 0.0 0.0 0.00 0.00 0.00 94 1010.1
20260510031553 45 190 0.0 0.0 0.00 0.00 0.00 94 1010.1
20260510030115 45 190 0.0 0.0 0.00 0.00 0.00 94 1010.1
20260510024537 45 191 0.0 0.0 0.00 0.01 0.00 94 1010.2
20260510023003 45 191 0.0 0.0 0.00 0.01 0.00 94 1010.3
20260510021507 45 310 0.0 0.0 0.00 0.01 0.00 94 1010.2
20260510020020 45 310 0.0 0.0 0.00 0.01 0.00 94 1010.2
20260510014536 45 310 0.0 0.0 0.00 0.01 0.00 94 1010.2
20260510013053 45 310 0.0 0.0 0.00 0.01 0.00 94 1010.0
20260510011552 45 310 0.0 0.0 0.00 0.01 0.00 94 1010.3
20260510010026 45 311 0.0 0.0 0.00 0.01 0.00 94 1010.5
20260510004525 45 311 0.0 0.0 0.00 0.01 0.00 94 1010.5
20260510003006 45 311 0.0 0.0 0.00 0.01 0.00 94 1010.6
20260510001538 45 310 0.0 0.0 0.00 0.01 0.00 94 1010.6
20260510000032 45 311 0.0 0.0 0.00 0.01 0.00 94 1010.8
20260509234534 45 311 0.0 0.0 0.00 0.01 0.00 94 1010.7
20260509233039 45 311 0.0 0.0 0.00 0.01 0.00 94 1011.1
20260509231522 45 310 0.0 0.0 0.00 0.01 0.00 94 1011.2
20260509230022 45 310 0.0 0.0 0.00 0.01 0.00 93 1011.2
20260509224543 45 310 0.0 0.0 0.00 0.01 0.00 93 1011.4
20260509223101 45 311 0.0 0.0 0.00 0.01 0.00 93 1011.3
20260509221559 45 278 0.0 0.0 0.00 0.01 0.00 93 1011.2
20260509220020 45 278 0.0 0.0 0.00 0.01 0.00 93 1011.1
20260509214551 45 278 0.0 0.0 0.00 0.01 0.01 93 1011.1
20260509213025 45 278 0.0 0.0 0.00 0.01 0.01 93 1011.0
20260509211543 45 278 0.0 0.0 0.00 0.01 0.01 93 1011.0
20260509210018 45 278 0.0 0.0 0.00 0.01 0.01 93 1011.0
20260509204607 45 278 0.0 0.0 0.00 0.01 0.01 92 1011.1
20260509203113 46 268 0.0 0.0 0.00 0.01 0.01 92 1010.9
20260509201557 46 83 0.0 0.0 0.00 0.01 0.01 92 1010.6
20260509200031 46 83 0.0 0.0 0.00 0.01 0.01 92 1010.2
20260509194505 46 357 0.0 0.0 0.00 0.01 0.01 92 1010.0
20260509193012 46 357 0.0 0.0 0.00 0.01 0.01 91 1009.7
20260509191547 46 357 0.0 0.0 0.00 0.01 0.01 91 1009.4
20260509190011 46 357 0.0 0.0 0.00 0.01 0.01 91 1009.3
20260509184519 46 357 0.0 0.0 0.00 0.01 0.01 90 1009.2
20260509183052 46 357 0.0 1.7 0.00 0.01 0.01 90 1009.2
20260509181526 47 340 0.0 0.0 0.00 0.01 0.01 89 1009.4
20260509180030 47 359 0.0 0.0 0.00 0.01 0.01 88 1009.7
20260509174501 48 214 0.0 0.0 0.00 0.01 0.01 87 1010.0
20260509173010 48 214 0.0 0.0 0.00 0.01 0.01 84 1010.2
20260509171601 49 214 0.0 1.7 0.00 0.01 0.01 84 1010.2
20260509170011 51 184 0.0 3.5 0.00 0.01 0.01 82 1010.1
20260509164536 52 278 0.0 8.7 0.00 0.01 0.01 78 1009.8
20260509163004 53 236 0.0 4.3 0.00 0.01 0.01 74 1009.5
20260509161558 53 260 0.0 2.6 0.00 0.01 0.01 72 1009.1
20260509160023 54 307 0.0 0.9 0.00 0.01 0.01 69 1008.7
20260509154522 54 283 0.0 0.0 0.00 0.01 0.01 67 1008.5
20260509153025 54 283 0.0 0.0 0.00 0.01 0.01 69 1008.6
20260509151530 54 283 0.0 0.0 0.00 0.01 0.01 68 1008.9
20260509150026 54 283 0.0 0.9 0.00 0.01 0.01 69 1009.2
20260509144526 54 155 0.0 1.7 0.00 0.01 0.01 66 1009.9
20260509143154 55 95 0.0 2.6 0.00 0.01 0.01 67 1010.0
20260509141517 56 207 0.0 0.9 0.00 0.01 0.01 67 1009.9
20260509140042 56 171 0.0 2.6 0.00 0.01 0.01 65 1010.2
20260509134527 57 208 0.9 3.5 0.00 0.01 0.01 66 1010.3
20260509133108 56 201 0.0 4.3 0.00 0.01 0.01 67 1010.1
20260509131542 56 240 0.0 1.7 0.00 0.01 0.01 65 1010.0
20260509130023 56 239 0.0 3.5 0.00 0.01 0.01 63 1010.5
20260509124600 56 252 0.0 6.1 0.00 0.01 0.01 64 1010.4
20260509123037 57 146 0.9 5.2 0.00 0.01 0.01 61 1010.7
20260509121544 57 201 0.0 4.3 0.00 0.01 0.01 61 1010.8
20260509120024 57 178 0.9 4.3 0.00 0.01 0.01 60 1010.8
20260509114552 57 293 0.9 5.2 0.00 0.01 0.01 60 1010.8
20260509113022 57 220 0.9 3.5 0.00 0.01 0.01 60 1010.8
20260509111619 57 91 0.9 12.2 0.00 0.01 0.01 62 1011.0
20260509110104 58 197 2.6 8.7 0.00 0.01 0.01 62 1011.3
20260509104611 58 239 1.7 13.0 0.00 0.01 0.01 63 1011.2
20260509103111 58 320 2.6 13.9 0.00 0.01 0.01 63 1011.3
20260509101558 58 311 3.5 12.2 0.00 0.01 0.01 65 1011.4
20260509100058 57 247 0.0 1.7 0.00 0.01 0.01 69 1011.0
20260509094535 56 253 0.0 0.0 0.00 0.01 0.01 74 1010.9
20260509093042 55 325 0.0 0.0 0.00 0.01 0.01 73 1011.0
20260509091505 54 255 0.0 0.9 0.00 0.01 0.01 76 1011.2
20260509090052 53 139 0.0 0.9 0.00 0.01 0.01 75 1010.9
20260509084517 52 189 0.0 0.9 0.00 0.01 0.01 77 1011.2
20260509083016 51 207 0.0 0.9 0.00 0.01 0.01 80 1011.0
20260509081523 49 228 0.0 0.0 0.00 0.01 0.01 83 1011.3
20260509080056 48 288 0.0 1.7 0.00 0.01 0.01 88 1011.4
20260509074558 46 217 0.0 0.0 0.00 0.01 0.01 88 1011.7
20260509073051 45 217 0.0 0.0 0.00 0.01 0.01 89 1011.6
20260509071528 44 217 0.0 0.0 0.00 0.01 0.01 90 1011.9
20260509070043 44 217 0.0 0.0 0.00 0.01 0.01 90 1012.4
20260509064553 44 217 0.0 0.0 0.00 0.01 0.01 91 1012.3
20260509063051 43 217 0.0 0.0 0.00 0.01 0.01 93 1012.5
20260509061536 42 56 0.0 0.0 0.00 0.01 0.01 92 1012.7
20260509060022 41 56 0.0 0.0 0.00 0.01 0.01 92 1012.8
20260509054602 41 127 0.0 0.0 0.00 0.01 0.01 92 1012.8
20260509053042 41 127 0.0 0.0 0.00 0.01 0.01 92 1012.6
20260509051537 40 74 0.0 0.0 0.00 0.01 0.01 92 1012.5
20260509050014 40 154 0.0 0.0 0.00 0.01 0.01 91 1012.6
20260509044555 40 155 0.0 0.0 0.00 0.01 0.01 91 1012.7